Showing default

IRIDIUM 136, 42962

Orbit data source: Space-Track

IRIDIUM 136, 42962 is a payload satellite owned by Iridium (US) in LEO that was launched on Mon, 09 Oct 2017 UTC via an FALCON 9 launch vehicle from the Air Force Western Test Range (AFWTR). Payloads include a variety of satellites, spacecraft, and rockets equipped with specific instruments for various scientific and technological missions. These include communications satellites like Starlink; space stations such as the ISS; scientific satellites like the Hubble; Earth observation satellites from companies like Planet Labs, Umbra, and HawkEye 360; GPS; miniature CubeSats for education and research; and military/defense satellites.

Loading next visibility...
IRIDIUM 136 details
Identifier
42962, 2017-061H
Orbit
LEO
Last TLE update12 hours ago
Origin
Flag of USIridium (US)
ManufacturerOATK SSG Gilbert
MissionOperational Commercial Communications
Bus & MotorELITEBUS, Unknown motor
Mass860 kg wet, 700 kg dry
Launch date (UTC)
2017-10-09 (7 years ago)
Launch vehicle
FALCON 9
Launch site
Air Force Western Test Range (AFWTR)
Object type
Payload
Rocket body
Debris
Shape & HBRTrap Box + 2 Pan, 9.4 m
Radar Cross Section14.423 m², Large (>1 m²)

Expand to show TLE details & history

TLE from 12 hours ago
0 IRIDIUM 136
1 42962U 17061H   24361.40804000  .00000035  00000-0  54422-5 0  9990
2 42962  86.3969 249.9412 0001780  76.2499 283.8895 14.34217711377753
Epoch: 2024-12-26T09:47Z
Definitive object data (Epoch: 2024-12-26T09:47:34.656Z)
Latitude0.00002°
Longitude7.65893°
Altitude780.413 km
Speed7.464 km/s
True Right ascension16h 39m 45s
True Declination0° 00' 00"
Sunlit
Object was in daylight at TLE epoch
Visualization TLE readout
Latitude47.05945°
Longitude11.31031°
Altitude783.909 km
Speed7.467 km/s
Apparent Right ascension13h 00m 13s
Apparent Declination12° 38' 29"
Sunlit
Object is in daylight
Visualization observer readout
Local Sidereal Time21:06:59
Azimuth300.892° NW
Elevation-14.638°
Doppler factor1
Orbital elements
Apogee altitude775.905 km
Perigee altitude773.359 km
Semi-major axis7,152.769 km
Eccentricity0.000178
Inclination86.3969°
RAAN249.9412°
Arg. of periapsis76.2499°
True anomaly283.8697°
Mean anomaly283.8895°
Eccentric anomaly283.8796°
Mean motion3.58783 °/min
BSTAR0.0000054422
Orbital period100.34 mins
Loading maneuver chart data...
Loading historical data...
Loading historical data...
Loading historical data...
Loading historical data...
Loading historical data...
Loading historical data...
Loading historical data...

IRIDIUM 136 Visibility forecast

Observer location: undefined°, undefined

Span
Click to sort rows by Start time (UTC) header in descending order
Start Az.
Max El. time (UTC)
Max El. Az.
Max El.
End time (UTC)
End Az.
9 mins2024-12-27 04:46:56.897Z2.356° NNE2024-12-27 04:51:56.897Z109.803° ESE43.335°2024-12-27 04:55:56.897Z169.953° S
4 mins2024-12-27 16:05:56.897Z99.431° ESE2024-12-27 16:06:56.897Z86.07° E15.987°2024-12-27 16:09:56.897Z47.244° ENE
8 mins2024-12-27 17:43:56.897Z204.078° SW2024-12-27 17:47:56.897Z288.202° WNW38.118°2024-12-27 17:51:56.897Z349.784° N
|